Change the Weather History Date:

Saturday, November 29, 2014

  Actual Average Record
Temperature  
Mean Temperature 81 °F -  
Max Temperature 88 °F 87 °F 93 °F (2001)
Min Temperature 74 °F 72 °F 68 °F (2005)
Cooling Degree Days 16    
Growing Degree Days 31 (Base 50)    
Moisture  
Dew Point 66 °F    
Average Humidity 53    
Maximum Humidity 65    
Minimum Humidity 46    
Precipitation  
Precipitation 0.00 in - - ()
Sea Level Pressure  
Sea Level Pressure 29.80 in    
Wind  
Wind Speed 12 mph ()    
Max Wind Speed 23 mph    
Max Gust Speed 36 mph    
Visibility 7.7 miles    
Events      
Averages and records for this station are not official NWS values.
T = Trace of Precipitation, MM = Missing Value Source: Averaged Metar Reports

Daily Weather History Graph

Daily Weather History Graph

Search for Another Location

Airport or City:

Trip Planner

Search our weather history database for the weather conditions in past years. The results will help you decide how hot, cold, wet, or windy it might be!

Date:

Astronomy

Nov. 29, 2014 Rise Set
Actual Time 5:43 AM CST 5:17 PM CST
Civil Twilight 5:21 AM CST 5:39 PM CST
Nautical Twilight 4:55 AM CST 6:05 PM CST
Astronomical Twilight 4:29 AM CST 6:31 PM CST
Moon 12:00 PM CST (11/29) No Moon Set
Length of Visible Light 12h 18m
Length of Day
11h 33m
First Quarter, 54% of the Moon is Illuminated
Nov 29
First Quarter
Dec 6
Full
Dec 14
Last Quarter
Dec 21
New
Dec 28
First Quarter

Hourly Weather History & Observations

Time (CST) Temp. Heat Index Dew Point Humidity Pressure Visibility Wind Dir Wind Speed Gust Speed Precip Events Conditions
6:00 AM 78 °F - 64 °F 52% 29.84 in 12 mi ENE 15.0 mph - -   Scattered Clouds
6:00 AM 78.8 °F - 64.4 °F 61% 29.81 in 6.2 mi ENE 15.0 mph - N/A   Partly Cloudy
7:00 AM 80.6 °F 82.3 °F 64.4 °F 58% 29.83 in 6.2 mi SW 4.6 mph - N/A   Partly Cloudy
8:00 AM 84.2 °F 86.6 °F 66.2 °F 55% 29.84 in 6.2 mi ENE 10.4 mph - N/A   Partly Cloudy
9:00 AM 84 °F - 67 °F 48% 29.88 in 12 mi West 9.2 mph - -   Scattered Clouds
9:00 AM 84.2 °F 86.6 °F 66.2 °F 55% 29.85 in 6.2 mi West 9.2 mph - N/A   Partly Cloudy
10:00 AM 87.8 °F 89.4 °F 64.4 °F 46% 29.84 in 6.2 mi East 16.1 mph - N/A   Partly Cloudy
11:00 AM 86.0 °F 88.2 °F 66.2 °F 51% 29.83 in 6.2 mi East 17.3 mph - N/A   Mostly Cloudy
12:00 PM 84 °F - 66 °F 46%  in 12 mi East 20.7 mph - -  
12:00 PM 84.2 °F 86.6 °F 66.2 °F 55% 29.81 in 6.2 mi East 20.7 mph - N/A   Mostly Cloudy
1:00 PM 87.8 °F 89.4 °F 64.4 °F 46% 29.77 in 6.2 mi East 23.0 mph 35.7 mph N/A   Scattered Clouds
2:00 PM 87.8 °F 90.4 °F 66.2 °F 49% 29.76 in 6.2 mi ENE 20.7 mph 32.2 mph N/A   Mostly Cloudy
3:00 PM 86 °F - 69 °F 47% 29.76 in 12 mi East 15.0 mph - -   Mostly Cloudy
3:00 PM 86.0 °F 90.4 °F 69.8 °F 58% 29.75 in 6.2 mi East 16.1 mph - N/A   Mostly Cloudy
4:00 PM 84.2 °F 85.0 °F 62.6 °F 48% 29.75 in 6.2 mi East 17.3 mph - N/A   Scattered Clouds
5:00 PM 82.4 °F 85.4 °F 68.0 °F 62% 29.76 in 6.2 mi ESE 10.4 mph - N/A   Partly Cloudy
6:00 PM 82 °F - 66 °F 48% 29.81 in 12 mi East 13.8 mph - -   Scattered Clouds
6:00 PM 82.4 °F 84.6 °F 66.2 °F 58% 29.78 in 6.2 mi East 13.8 mph - N/A   Partly Cloudy
7:00 PM 80.6 °F 82.7 °F 66.2 °F 61% 29.80 in 6.2 mi NE 9.2 mph - N/A   Partly Cloudy
8:00 PM 80.6 °F 83.2 °F 68.0 °F 65% 29.81 in 6.2 mi East 15.0 mph - N/A   Partly Cloudy